TimeCDT,TemperatureF,Dew PointF,Humidity,Sea Level PressureIn,VisibilityMPH,Wind Direction,Wind SpeedMPH,Gust SpeedMPH,PrecipitationIn,Events,Conditions,WindDirDegrees,DateUTC
12:53 AM,33.1,23.0,66,30.13,10.0,South,9.2,-,N/A,,Clear,170,2014-03-30 05:53:00
1:53 AM,33.1,23.0,66,30.11,10.0,South,8.1,-,N/A,,Clear,170,2014-03-30 06:53:00
2:53 AM,33.1,23.0,66,30.07,10.0,South,10.4,-,N/A,,Clear,170,2014-03-30 07:53:00
3:53 AM,34.0,25.0,70,30.04,10.0,South,10.4,-,N/A,,Clear,170,2014-03-30 08:53:00
4:53 AM,33.1,25.0,72,30.02,10.0,South,8.1,-,N/A,,Clear,170,2014-03-30 09:53:00
5:53 AM,33.1,25.0,72,30.00,10.0,SSE,10.4,-,N/A,,Clear,160,2014-03-30 10:53:00
6:53 AM,33.1,25.0,72,29.97,10.0,SSE,12.7,-,N/A,,Clear,160,2014-03-30 11:53:00
7:53 AM,34.0,26.1,73,29.97,10.0,South,10.4,-,N/A,,Clear,170,2014-03-30 12:53:00
8:53 AM,37.9,28.0,68,29.96,10.0,South,12.7,-,N/A,,Clear,180,2014-03-30 13:53:00
9:53 AM,43.0,28.9,58,29.94,10.0,SSW,11.5,27.6,N/A,,Clear,200,2014-03-30 14:53:00
10:53 AM,44.1,28.9,55,29.94,10.0,South,19.6,27.6,N/A,,Clear,190,2014-03-30 15:53:00
11:53 AM,45.0,28.9,53,29.94,10.0,SSW,8.1,19.6,N/A,,Clear,200,2014-03-30 16:53:00
12:53 PM,46.0,28.9,51,29.94,10.0,South,10.4,-,N/A,,Clear,190,2014-03-30 17:53:00
1:53 PM,46.9,30.0,52,29.94,10.0,South,10.4,-,N/A,,Clear,190,2014-03-30 18:53:00
2:53 PM,48.9,30.0,48,29.92,9.0,SW,10.4,-,N/A,,Clear,220,2014-03-30 19:53:00
3:53 PM,48.9,30.0,48,29.92,9.0,SSW,9.2,-,N/A,,Clear,200,2014-03-30 20:53:00
4:53 PM,50.0,30.0,46,29.91,9.0,SSW,9.2,-,N/A,,Clear,200,2014-03-30 21:53:00
5:53 PM,50.0,30.9,48,29.91,9.0,SSW,6.9,-,N/A,,Clear,200,2014-03-30 22:53:00
6:53 PM,45.0,30.9,58,29.93,9.0,Calm,Calm,-,N/A,,Clear,0,2014-03-30 23:53:00
7:53 PM,39.0,30.0,70,29.92,10.0,NNE,3.5,-,N/A,,Clear,30,2014-03-31 00:53:00
8:53 PM,37.9,30.0,73,29.93,10.0,ENE,3.5,-,N/A,,Clear,60,2014-03-31 01:53:00
9:53 PM,42.1,30.9,65,29.93,10.0,ENE,4.6,-,N/A,,Clear,70,2014-03-31 02:53:00
10:53 PM,42.1,30.9,65,29.92,10.0,ENE,3.5,-,N/A,,Scattered Clouds,60,2014-03-31 03:53:00
11:53 PM,44.1,30.9,60,29.90,10.0,ESE,5.8,-,N/A,,Clear,110,2014-03-31 04:53:00